C/2016 Q2 ( PanSTARRS )

Japanese version
Home page
Updated on June 1, 2021

---------------------------------------------------------------------

* Profile

Discovery Date August 26, 2016
Magnitude 21.6 mag
Discoverer Pan-STARRS 1 telescope (Haleakala)

* Pictures

* Orbital Elements

Epoch 2021 May 26.0 TT = JDT 2459360.5
T 2021 May 11.88796 TT                                  Rudenko
q   7.0818988            (2000.0)            P               Q
z  -0.0001007      Peri.   84.52877     -0.12666628     -0.80693135
 +/-0.0000011      Node   322.29574     -0.66688526     +0.49981139
e   1.0007130      Incl.  109.38825     +0.73431581     +0.31472270
From 422 observations 2016 Aug. 26-2021 May 29, mean residual 0".8.

* Finding Charts

* Magnitudes Graph

        m1 = 9.5 + 5 log d + 5.0 log r

---------------------------------------------------------------------

The orbital elements are published on M.P.E.C. 2021-L04.
The charts are made with StellaNavigator Ver.10 (AstroArts).
The magnitudes graphs are made with Comet for Windows.

---------------------------------------------------------------------

Copyright(C) Seiichi Yoshida (comet@aerith.net). All rights reserved.